Location: Bridgewater
(44.3670°N, 64.5170°W)
Time: 04:46:58
(UTC-03:00)

Amateur Radio Satellites - All Passes

Search period start: 01 August 2015 04:16
Search period end: 02 August 2015 04:16
Location: Bridgewater, 44.3670°N, 64.5170°W

Satellite Date Start Highest point End Downlink Frequencies (MHz)
Time Altitude Azimuth
Gurwin Techsat 1B 01 Aug 04:26:00 04:31:10 52° 289° (WNW) 04:36:18 435.225
CUSAT 1 01 Aug 04:35:54 04:38:21 26° 97° (E) 04:40:38 437.405
Cosmos 2504 01 Aug 04:39:01 04:45:48 43° 289° (WNW) 04:53:01 435.465 / 435.565
ITAMSAT 1 01 Aug 04:49:49 04:54:34 36° 293° (WNW) 04:59:14 435.822/435.867
ISS 01 Aug 04:56:00 04:58:42 24° 223° (SW) 05:01:22 145.825
MOZHAYETS 4 01 Aug 04:58:38 05:03:18 87° 257° (WSW) 05:07:59
HORYU 2 01 Aug 05:05:44 05:10:11 56° 100° (E) 05:14:38 437.375
AO-7 01 Aug 05:08:35 05:16:46 57° 102° (ESE) 05:24:55 29.400- 29.500
JAS-2 01 Aug 05:12:45 05:20:30 68° 288° (WNW) 05:28:11 435.910
CUBESAT XI-V 01 Aug 05:17:22 05:19:59 15° 62° (ENE) 05:22:46 437.345
GONETS M04 01 Aug 05:21:30 05:27:25 22° 80° (E) 05:33:41
RS-15 01 Aug 05:23:20 05:34:11 43° 34° (NE) 05:45:34 29.354- 29.394
STARS 01 Aug 05:24:57 05:25:21 10° 274° (W) 05:25:29 437.465
STRAND 1 01 Aug 05:43:38 05:44:57 11° 57° (ENE) 05:46:32 437.568
DANDE 01 Aug 05:56:40 05:59:29 28° 284° (WNW) 06:01:56 436.750
CUTE-I 01 Aug 06:17:27 06:19:28 12° 86° (E) 06:21:49 437.470
PRISM 01 Aug 06:27:24 06:30:10 18° 65° (ENE) 06:33:04 437.425
HORYU 2 01 Aug 06:43:27 06:46:25 17° 297° (WNW) 06:49:15 437.375
CUBESAT XI-V 01 Aug 06:52:17 06:56:57 67° 259° (W) 07:01:37 437.345
Cubesat XI-IV 01 Aug 06:59:28 07:04:08 31° 95° (E) 07:08:51 437.490
JAS-2 01 Aug 06:59:36 07:04:19 17° 307° (NW) 07:08:43 435.910
AO-7 01 Aug 07:01:49 07:09:20 38° 302° (WNW) 07:16:40 29.400- 29.500
Cosmos 2499 01 Aug 07:08:43 07:13:59 22° 80° (E) 07:19:49 435.465 / 435.565
GONETS M04 01 Aug 07:14:35 07:23:20 83° 280° (W) 07:32:05
STRAND 1 01 Aug 07:18:14 07:23:22 73° 73° (ENE) 07:28:31 437.568
BEESAT 2 01 Aug 07:28:24 07:30:38 14° 35° (NE) 07:32:55 435.950
RS-15 01 Aug 07:36:01 07:47:45 76° 240° (WSW) 07:59:53 29.354- 29.394
CUTE-I 01 Aug 07:55:02 08:00:24 87° 285° (WNW) 08:05:44 437.470
BRITE-PL 01 Aug 07:59:26 08:01:53 15° 90° (E) 08:04:37 437.365/2234.400
PRISM 01 Aug 08:01:16 08:05:19 46° 261° (W) 08:09:21 437.425
BEESAT 3 01 Aug 08:07:36 08:11:16 32° 46° (NE) 08:14:54 437.485
GOMX 1 01 Aug 08:11:25 08:13:09 12° 88° (E) 08:15:12 467.674
Cubesat XI-IV 01 Aug 08:39:25 08:44:20 37° 293° (WNW) 08:49:09 437.490
CANX-2 01 Aug 08:42:14 08:44:02 13° 87° (E) 08:46:01 2200.000
HO-68 01 Aug 08:48:27 08:53:48 23° 90° (E) 08:59:23 435.675
M-CUBED/EXP-1 PRIME 01 Aug 08:55:28 08:59:01 28° 61° (ENE) 09:02:50 437.505
Cosmos 2499 01 Aug 08:58:50 09:06:15 74° 281° (W) 09:14:20 435.465 / 435.565
AIST 2 01 Aug 09:00:08 09:03:31 23° 41° (NE) 09:06:55 435.215
STRAND 1 01 Aug 09:00:15 09:03:12 15° 272° (W) 09:05:55 437.568
BEESAT 2 01 Aug 09:05:13 09:09:20 86° 53° (NE) 09:13:22 435.950
GONETS M04 01 Aug 09:15:49 09:21:50 19° 303° (WNW) 09:27:29
AUBIESAT-1 01 Aug 09:24:22 09:28:19 47° 66° (ENE) 09:32:36 437.475
DOVE 4 01 Aug 09:35:53 09:40:23 55° 99° (E) 09:45:10 437.250
BRITE-PL 01 Aug 09:36:32 09:40:48 56° 286° (WNW) 09:45:19 437.365/2234.400
CUTE-I 01 Aug 09:37:02 09:39:47 14° 302° (WNW) 09:42:18 437.470
BEESAT 3 01 Aug 09:45:37 09:49:08 28° 244° (WSW) 09:52:33 437.485
CINEMA 3 01 Aug 09:45:40 09:49:52 33° 96° (E) 09:54:15 145.822/145.860
GOMX 1 01 Aug 09:47:19 09:51:48 73° 284° (WNW) 09:56:34 467.674
COMPASS 1 01 Aug 09:50:02 09:54:00 38° 97° (E) 09:57:56 437.405
RS-15 01 Aug 09:50:43 09:58:36 20° 260° (W) 10:05:50 29.354- 29.394
UNISAT 6 01 Aug 09:53:31 09:56:33 19° 64° (ENE) 09:59:45 437.425
PCSat 01 Aug 09:55:07 10:00:29 69° 118° (ESE) 10:05:54 145.827
FUNcube-1 01 Aug 10:00:36 10:02:35 13° 87° (E) 10:04:49 145.935
UWE-3 01 Aug 10:01:50 10:04:58 18° 90° (E) 10:08:16 435.000/436.395/437.385
SO-50 01 Aug 10:02:39 10:07:19 58° 120° (ESE) 10:12:10 436.795
SEEDS 01 Aug 10:04:52 10:09:09 71° 101° (E) 10:13:23 437.485
CUTE 1.7 + AOD 2 01 Aug 10:07:44 10:12:04 87° 284° (WNW) 10:16:21 437.475
POPSAT HIP 1 01 Aug 10:08:48 10:09:08 10° 60° (ENE) 10:09:39 437.405
Oscar 11 01 Aug 10:12:14 10:15:53 26° 94° (E) 10:19:34 145.826/435.025
O/OREOS (USA 219) 01 Aug 10:13:35 10:14:52 11° 44° (NE) 10:16:22 437.305
QB50P2 01 Aug 10:14:58 10:16:42 13° 62° (ENE) 10:18:36 145.880/145.840
CANX-2 01 Aug 10:16:10 10:20:28 64° 285° (WNW) 10:24:41 2200.000
CUBEBUG 2 01 Aug 10:16:40 10:20:48 32° 95° (E) 10:25:04 437.445
DELFI C3 01 Aug 10:18:04 10:21:01 19° 92° (E) 10:24:01 145.870
M-CUBED/EXP-1 PRIME 01 Aug 10:30:08 10:33:44 30° 261° (W) 10:37:34 437.505
AAUSAT CUBESAT 2 01 Aug 10:31:18 10:35:33 88° 284° (WNW) 10:39:44 437.432
HO-68 01 Aug 10:35:06 10:42:17 73° 290° (WNW) 10:49:26 435.675
TIGRISAT 01 Aug 10:35:31 10:39:39 46° 72° (ENE) 10:43:57 435.000
ANTELSAT 01 Aug 10:37:15 10:41:28 50° 72° (ENE) 10:45:49 437.575/2403.000
DUCHIFAT 1 01 Aug 10:38:04 10:41:03 20° 66° (ENE) 10:44:09 145.980
AIST 2 01 Aug 10:38:17 10:42:19 46° 241° (WSW) 10:46:16 435.215
QB50P1 01 Aug 10:41:07 10:44:20 22° 67° (ENE) 10:47:38 145.935-145.965
NANOSAT C BR1 01 Aug 10:42:19 10:45:32 22° 66° (ENE) 10:48:51 145.865
YUBILEINY 01 Aug 10:45:28 10:52:33 27° 62° (ENE) 10:59:52 435.215
Cosmos 2499 01 Aug 10:56:48 11:01:20 16° 307° (NW) 11:05:36 435.465 / 435.565
AUBIESAT-1 01 Aug 11:00:32 11:03:23 17° 266° (W) 11:06:14 437.475
ZACube-1 01 Aug 11:13:12 11:17:45 74° 102° (ESE) 11:22:20 437.345
DOVE 4 01 Aug 11:14:41 11:17:51 18° 295° (WNW) 11:21:00 437.250
CINEMA 3 01 Aug 11:22:57 11:27:00 30° 291° (WNW) 11:31:08 145.822/145.860
POLYITAN 1 01 Aug 11:23:12 11:27:20 62° 74° (ENE) 11:31:30 437.675
Cosmos 2491 01 Aug 11:24:07 11:29:32 19° 78° (ENE) 11:35:23 435.465 / 435.565
COMPASS 1 01 Aug 11:26:12 11:29:26 21° 294° (WNW) 11:32:34 437.405
UNISAT 6 01 Aug 11:28:49 11:33:01 46° 262° (W) 11:37:20 437.425
AIST 1 01 Aug 11:31:47 11:33:15 12° 85° (E) 11:34:57
FUNcube-1 01 Aug 11:34:54 11:39:26 69° 285° (WNW) 11:43:59 145.935
UWE-3 01 Aug 11:37:20 11:41:48 50° 287° (WNW) 11:46:17 435.000/436.395/437.385
PCSat 01 Aug 11:40:05 11:44:27 23° 319° (NW) 11:48:44 145.827
POPSAT HIP 1 01 Aug 11:40:11 11:44:22 88° 253° (WSW) 11:48:37 437.405
SEEDS 01 Aug 11:42:28 11:44:26 13° 298° (WNW) 11:46:12 437.485
BUGSAT 1 01 Aug 11:43:59 11:47:59 63° 74° (ENE) 11:51:59 437.445
SO-50 01 Aug 11:44:11 11:48:15 25° 321° (NW) 11:52:19 436.795
50 SAT 01 Aug 11:45:23 11:48:56 30° 96° (E) 11:52:29 437.505
QB50P2 01 Aug 11:47:53 11:52:05 70° 258° (WSW) 11:56:18 145.880/145.840
Oscar 11 01 Aug 11:48:12 11:52:06 31° 291° (WNW) 11:55:54 145.826/435.025
UKube-1 01 Aug 11:49:09 11:53:17 43° 99° (E) 11:57:25 .
O/OREOS (USA 219) 01 Aug 11:50:37 11:55:14 75° 66° (ENE) 11:59:48 437.305
DELFI C3 01 Aug 11:52:28 11:56:14 36° 289° (WNW) 11:59:56 145.870
AISAT 01 Aug 11:53:19 11:57:18 33° 96° (E) 12:01:19 437.250
CUBEBUG 2 01 Aug 11:53:25 11:57:26 29° 291° (WNW) 12:01:27 437.445
HUMSAT D 01 Aug 11:59:25 12:03:47 85° 281° (W) 12:08:06 437.325/437.525
CUBEBUG 1 01 Aug 12:07:22 12:11:00 26° 94° (E) 12:14:43 437.445
DUCHIFAT 1 01 Aug 12:12:41 12:16:37 39° 262° (W) 12:20:34 145.980
TIGRISAT 01 Aug 12:13:43 12:16:44 18° 270° (W) 12:19:40 435.000
ANTELSAT 01 Aug 12:15:46 12:18:38 16° 271° (W) 12:21:23 437.575/2403.000
QB50P1 01 Aug 12:16:09 12:20:01 35° 263° (W) 12:23:53 145.935-145.965
DX 1 01 Aug 12:17:18 12:21:40 85° 285° (WNW) 12:26:00 434.975-435.025
NANOSAT C BR1 01 Aug 12:17:21 12:21:12 34° 263° (W) 12:25:03 145.865
HO-68 01 Aug 12:24:38 12:28:57 17° 309° (NW) 12:32:58 435.675
Cosmos 2504 01 Aug 12:31:25 12:35:56 16° 55° (NE) 12:41:01 435.465 / 435.565
VELOX 1 01 Aug 12:32:03 12:36:28 82° 103° (ESE) 12:40:53 145.980
YUBILEINY 01 Aug 12:41:34 12:50:23 74° 266° (W) 12:59:09 435.215
SPROUT 01 Aug 12:43:11 12:46:19 20° 92° (E) 12:49:35 437.525
ESTCUBE 1 01 Aug 12:44:10 12:48:42 79° 103° (ESE) 12:53:10 437.505/2401.250
ZACube-1 01 Aug 12:51:14 12:53:35 14° 298° (WNW) 12:55:47 437.345
TISAT 1 01 Aug 12:54:51 12:57:25 16° 90° (E) 13:00:08 437.305
POLYITAN 1 01 Aug 13:01:50 13:03:43 12° 272° (W) 13:05:25 437.675
AIST 1 01 Aug 13:06:05 13:10:25 65° 281° (W) 13:14:44
Oscar 19 01 Aug 13:08:52 13:13:28 36° 68° (ENE) 13:18:10 437.125/150
Cosmos 2491 01 Aug 13:16:31 13:25:20 89° 89° (E) 13:34:07 435.465 / 435.565
50 SAT 01 Aug 13:20:10 13:23:22 23° 292° (WNW) 13:26:28 437.505
BUGSAT 1 01 Aug 13:22:37 13:23:57 11° 272° (W) 13:25:04 437.445
UKube-1 01 Aug 13:25:59 13:29:09 20° 295° (WNW) 13:32:12 .
AISAT 01 Aug 13:30:05 13:33:45 26° 293° (WNW) 13:37:22 437.250
O/OREOS (USA 219) 01 Aug 13:32:13 13:34:06 12° 261° (W) 13:35:44 437.305
CUBEBUG 1 01 Aug 13:43:34 13:47:23 30° 291° (WNW) 13:51:08 437.445
JAS-2 01 Aug 13:45:12 13:48:24 15° 51° (NE) 13:52:05 435.910
SWISSCUBE 01 Aug 13:56:28 13:59:01 15° 88° (E) 14:01:47 437.505
Gurwin Techsat 1B 01 Aug 14:09:14 14:14:09 41° 69° (ENE) 14:19:08 435.225
VELOX 1 01 Aug 14:10:44 14:12:27 12° 300° (WNW) 14:13:57 145.980
ITUPSAT 1 01 Aug 14:16:47 14:20:22 21° 92° (E) 14:24:02 437.325
SPROUT 01 Aug 14:18:34 14:22:35 39° 289° (WNW) 14:26:35 437.525
AO-7 01 Aug 14:19:41 14:25:34 23° 50° (NE) 14:31:42 29.400- 29.500
Cosmos 2504 01 Aug 14:21:36 14:29:59 70° 79° (ENE) 14:38:36 435.465 / 435.565
ESTCUBE 1 01 Aug 14:22:58 14:25:00 13° 299° (WNW) 14:26:50 437.505/2401.250
TISAT 1 01 Aug 14:29:25 14:33:29 47° 288° (WNW) 14:37:32 437.305
ITAMSAT 1 01 Aug 14:29:49 14:34:54 55° 71° (ENE) 14:40:01 435.822/435.867
YUBILEINY 01 Aug 14:41:09 14:45:49 15° 285° (WNW) 14:49:55 435.215
Oscar 19 01 Aug 14:48:24 14:52:54 30° 265° (W) 14:57:22 437.125/150
DANDE 01 Aug 14:50:00 14:51:32 12° 71° (ENE) 14:53:24 436.750
CUSAT 1 01 Aug 15:06:35 15:10:16 32° 76° (ENE) 15:15:01 437.405
BEESAT 01 Aug 15:11:59 15:16:47 74° 102° (ESE) 15:21:33 436.000
Cosmos 2491 01 Aug 15:17:05 15:23:38 22° 301° (WNW) 15:29:49 435.465 / 435.565
JAS-2 01 Aug 15:26:04 15:32:09 69° 72° (ENE) 15:39:08 435.910
GONETS M04 01 Aug 15:29:23 15:31:50 12° 48° (NE) 15:34:54
SWISSCUBE 01 Aug 15:32:40 15:37:25 65° 287° (WNW) 15:42:07 437.505
STARS 01 Aug 15:33:36 15:35:36 13° 88° (E) 15:37:49 437.465
Gurwin Techsat 1B 01 Aug 15:49:41 15:54:17 28° 267° (W) 15:58:48 435.225
ITUPSAT 1 01 Aug 15:53:55 15:58:31 45° 290° (WNW) 16:03:02 437.325
KKS-1 01 Aug 15:59:32 16:03:44 40° 98° (E) 16:07:57 437.445
HORYU 2 01 Aug 16:05:19 16:09:43 64° 74° (ENE) 16:14:10 437.375
AO-7 01 Aug 16:08:58 16:17:20 84° 70° (ENE) 16:25:46 29.400- 29.500
ITAMSAT 1 01 Aug 16:10:56 16:14:49 20° 269° (W) 16:18:33 435.822/435.867
Cosmos 2504 01 Aug 16:14:45 16:21:37 28° 277° (W) 16:28:22 435.465 / 435.565
DANDE 01 Aug 16:31:03 16:34:39 52° 261° (W) 16:39:26 436.750
CUSAT 1 01 Aug 16:49:15 16:52:46 25° 264° (W) 16:57:00 437.405
BEESAT 01 Aug 16:51:22 16:54:05 15° 299° (WNW) 16:56:37 436.000
SO-50 01 Aug 16:52:58 16:56:17 18° 33° (NNE) 16:59:41 436.795
MOZHAYETS 4 01 Aug 16:53:01 16:56:22 20° 91° (E) 16:59:49
Cosmos 2499 01 Aug 16:58:35 16:59:31 10° 47° (NE) 17:01:07 435.465 / 435.565
PCSat 01 Aug 16:59:02 17:02:29 17° 36° (NE) 17:06:04 145.827
STARS 01 Aug 17:08:09 17:12:33 64° 286° (WNW) 17:16:56 437.465
JAS-2 01 Aug 17:13:23 17:18:07 21° 275° (W) 17:23:01 435.910
GONETS M04 01 Aug 17:22:51 17:31:21 55° 74° (ENE) 17:39:54
KKS-1 01 Aug 17:36:40 17:40:10 22° 294° (WNW) 17:43:33 437.445
CUTE-I 01 Aug 17:39:53 17:44:12 26° 64° (ENE) 17:48:39 437.470
HORYU 2 01 Aug 17:44:33 17:46:52 13° 272° (W) 17:48:59 437.375
AO-7 01 Aug 18:04:53 18:11:14 22° 271° (W) 18:17:13 29.400- 29.500
VERMONT LUNAR 01 Aug 18:18:42 18:20:02 12° 153° (SSE) 18:21:26 437.305
Cubesat XI-IV 01 Aug 18:22:54 18:28:09 60° 72° (ENE) 18:33:28 437.490
MOZHAYETS 4 01 Aug 18:29:25 18:33:52 45° 288° (WNW) 18:38:13
SO-50 01 Aug 18:32:40 18:37:40 81° 54° (NE) 18:42:32 436.795
PCSat 01 Aug 18:41:25 18:46:52 77° 57° (ENE) 18:52:18 145.827
Cosmos 2499 01 Aug 18:47:07 18:55:27 48° 72° (ENE) 19:04:00 435.465 / 435.565
CUBESAT XI-V 01 Aug 18:47:46 18:51:37 26° 93° (E) 18:55:32 437.345
BRITE-PL 01 Aug 19:12:22 19:15:28 20° 67° (ENE) 19:18:36 437.365/2234.400
CUTE-I 01 Aug 19:18:55 19:24:04 46° 261° (W) 19:29:14 437.470
HO-68 01 Aug 19:19:45 19:24:53 23° 55° (NE) 19:30:15 435.675
GONETS M04 01 Aug 19:20:13 19:27:55 35° 275° (W) 19:35:27
GOMX 1 01 Aug 19:21:50 19:24:05 15° 64° (ENE) 19:26:29 467.674
STRAND 1 01 Aug 19:27:56 19:31:45 22° 91° (E) 19:35:41 437.568
CANX-2 01 Aug 19:37:27 19:39:09 12° 62° (ENE) 19:41:02 2200.000
PRISM 01 Aug 19:42:23 19:45:28 21° 93° (E) 19:48:37 437.425
VERMONT LUNAR 01 Aug 19:53:20 19:56:13 32° 168° (SSE) 19:59:07 437.305
RS-15 01 Aug 19:57:44 20:01:23 13° 96° (E) 20:06:04 29.354- 29.394
Cubesat XI-IV 01 Aug 20:04:51 20:08:44 19° 270° (W) 20:12:28 437.490
SO-50 01 Aug 20:14:55 20:17:36 14° 251° (WSW) 20:20:03 436.795
PHONESAT 2.4 01 Aug 20:15:59 20:18:03 15° 153° (SSE) 20:20:10 2401.200-2431.200
CUBESAT XI-V 01 Aug 20:24:57 20:29:08 33° 291° (WNW) 20:33:13 437.345
PCSat 01 Aug 20:26:22 20:29:43 16° 254° (WSW) 20:32:50 145.827
Cosmos 2499 01 Aug 20:40:29 20:48:36 43° 272° (W) 20:56:42 435.465 / 435.565
COMPASS 1 01 Aug 20:42:43 20:46:28 32° 70° (ENE) 20:50:17 437.405
DOVE 4 01 Aug 20:43:37 20:47:43 63° 74° (ENE) 20:51:50 437.250
CINEMA 3 01 Aug 20:49:34 20:53:15 32° 69° (ENE) 20:57:04 145.822/145.860
BRITE-PL 01 Aug 20:49:45 20:53:52 38° 263° (W) 20:57:47 437.365/2234.400
GOMX 1 01 Aug 20:57:45 21:01:54 53° 260° (W) 21:05:58 467.674
SEEDS 01 Aug 20:58:08 21:02:18 60° 74° (ENE) 21:06:33 437.485
FUNcube-1 01 Aug 20:58:50 21:00:32 12° 61° (ENE) 21:02:26 145.935
UWE-3 01 Aug 21:01:18 21:04:01 17° 64° (ENE) 21:06:54 435.000/436.395/437.385
CUTE 1.7 + AOD 2 01 Aug 21:01:46 21:06:02 81° 76° (ENE) 21:10:22 437.475
HO-68 01 Aug 21:04:45 21:11:55 83° 254° (WSW) 21:19:08 435.675
STRAND 1 01 Aug 21:06:20 21:11:17 50° 290° (WNW) 21:16:10 437.568
DELFI C3 01 Aug 21:07:21 21:09:49 16° 65° (ENE) 21:12:26 145.870
Oscar 11 01 Aug 21:08:42 21:12:15 26° 67° (ENE) 21:15:53 145.826/435.025
CANX-2 01 Aug 21:10:15 21:14:31 74° 258° (WSW) 21:18:51 2200.000
CUBEBUG 2 01 Aug 21:16:53 21:20:32 30° 69° (ENE) 21:24:20 437.445
PRISM 01 Aug 21:17:15 21:21:02 35° 290° (WNW) 21:24:45 437.425
AAUSAT CUBESAT 2 01 Aug 21:23:10 21:27:21 76° 76° (ENE) 21:31:35 437.432
VERMONT LUNAR 01 Aug 21:29:39 21:32:39 39° 185° (S) 21:35:38 437.305
Cosmos 2491 01 Aug 21:33:25 21:33:36 10° 46° (NE) 21:34:28 435.465 / 435.565
ISS 01 Aug 21:35:43 21:38:47 40° 142° (SE) 21:41:53 145.825
DX 1 01 Aug 21:41:21 21:42:52 12° 61° (ENE) 21:44:36 434.975-435.025
PHONESAT 2.4 01 Aug 21:52:14 21:55:30 36° 169° (S) 21:58:46 2401.200-2431.200
VELOX 1 01 Aug 21:58:37 21:59:27 11° 60° (ENE) 22:00:31 145.980
RS-15 01 Aug 22:00:58 22:11:35 63° 116° (ESE) 22:22:41 29.354- 29.394
M-CUBED/EXP-1 PRIME 01 Aug 22:09:27 22:12:54 20° 95° (E) 22:16:25 437.505
ZACube-1 01 Aug 22:10:41 22:14:51 69° 75° (ENE) 22:19:10 437.345
ESTCUBE 1 01 Aug 22:12:22 22:13:25 11° 60° (ENE) 22:14:42 437.505/2401.250
COMPASS 1 01 Aug 22:18:44 22:22:12 24° 267° (W) 22:25:36 437.405
DOVE 4 01 Aug 22:24:36 22:26:03 11° 273° (W) 22:27:15 437.250
CINEMA 3 01 Aug 22:27:14 22:30:34 23° 268° (W) 22:33:53 145.822/145.860
ANTELSAT 01 Aug 22:30:33 22:30:56 10° 85° (E) 22:31:37 437.575/2403.000
50 SAT 01 Aug 22:31:02 22:34:03 22° 67° (ENE) 22:37:10 437.505
FUNcube-1 01 Aug 22:32:07 22:36:18 72° 258° (WSW) 22:40:37 145.935
UWE-3 01 Aug 22:36:08 22:40:12 48° 262° (W) 22:44:23 435.000/436.395/437.385
SEEDS 01 Aug 22:36:25 22:38:34 13° 272° (W) 22:40:30 437.485
AUBIESAT-1 01 Aug 22:37:43 22:41:57 32° 100° (E) 22:46:07 437.475
DELFI C3 01 Aug 22:40:37 22:44:33 48° 261° (W) 22:48:31 145.870
Oscar 11 01 Aug 22:44:24 22:48:19 32° 264° (W) 22:52:14 145.826/435.025
UKube-1 01 Aug 22:45:21 22:49:28 46° 71° (ENE) 22:53:38 .
HUMSAT D 01 Aug 22:52:26 22:56:35 82° 76° (ENE) 23:00:49 437.325/437.525
AISAT 01 Aug 22:52:34 22:56:35 37° 70° (ENE) 23:00:39 437.250
CUBEBUG 2 01 Aug 22:53:45 22:57:17 25° 267° (W) 23:00:48 437.445
HO-68 01 Aug 22:56:46 23:00:53 15° 275° (W) 23:04:34 435.675
AAUSAT CUBESAT 2 01 Aug 23:03:16 23:03:35 10° 274° (W) 23:03:38 437.432
BEESAT 2 01 Aug 23:03:30 23:04:04 10° 109° (ESE) 23:04:51 435.950
CUBEBUG 1 01 Aug 23:05:06 23:08:47 28° 68° (ENE) 23:12:32 437.445
VERMONT LUNAR 01 Aug 23:06:33 23:08:58 20° 201° (SSW) 23:11:21 437.305
AIST 1 01 Aug 23:11:41 23:15:36 34° 75° (ENE) 23:19:30
ISS 01 Aug 23:12:11 23:15:15 37° 340° (NNW) 23:18:20 145.825
DX 1 01 Aug 23:14:13 23:18:33 80° 255° (WSW) 23:22:56 434.975-435.025
UNISAT 6 01 Aug 23:18:53 23:23:06 32° 96° (E) 23:27:21 437.425
Cosmos 2491 01 Aug 23:25:02 23:33:24 49° 73° (ENE) 23:41:48 435.465 / 435.565
POPSAT HIP 1 01 Aug 23:25:12 23:27:16 14° 89° (E) 23:29:32 437.405
PHONESAT 2.4 01 Aug 23:29:49 23:33:10 42° 186° (S) 23:36:30 2401.200-2431.200
VELOX 1 01 Aug 23:30:57 23:35:22 89° 68° (ENE) 23:39:48 145.980
QB50P2 01 Aug 23:32:30 23:35:14 17° 91° (E) 23:38:07 145.880/145.840
BEESAT 3 01 Aug 23:39:03 23:42:41 32° 117° (ESE) 23:46:22 437.485
SPROUT 01 Aug 23:39:14 23:42:18 20° 66° (ENE) 23:45:28 437.525
M-CUBED/EXP-1 PRIME 01 Aug 23:43:17 23:47:59 53° 293° (WNW) 23:52:33 437.505
ESTCUBE 1 01 Aug 23:45:05 23:49:38 87° 78° (ENE) 23:54:12 437.505/2401.250
TISAT 1 01 Aug 23:48:59 23:51:29 16° 64° (ENE) 23:54:07 437.305
YUBILEINY 01 Aug 23:49:41 23:56:29 28° 82° (E) 00:03:36 435.215
ZACube-1 01 Aug 23:50:26 23:51:50 11° 274° (W) 23:53:00 437.345
DUCHIFAT 1 01 Aug 23:55:38 23:59:15 27° 95° (E) 00:02:56 145.980
QB50P1 01 Aug 23:59:19 00:03:07 31° 96° (E) 00:06:57 145.935-145.965
NANOSAT C BR1 02 Aug 00:00:15 00:04:04 31° 96° (E) 00:07:53 145.865
TIGRISAT 02 Aug 00:01:38 00:06:21 84° 103° (ESE) 00:11:04 435.000
ANTELSAT 02 Aug 00:03:43 00:08:27 90° 284° (WNW) 00:13:11 437.575/2403.000
50 SAT 02 Aug 00:05:01 00:08:29 30° 264° (W) 00:11:58 437.505
AUBIESAT-1 02 Aug 00:12:20 00:16:36 33° 297° (WNW) 00:20:44 437.475
RS-15 02 Aug 00:14:02 00:24:35 47° 323° (NW) 00:35:31 29.354- 29.394
UKube-1 02 Aug 00:22:55 00:25:53 17° 269° (W) 00:28:44 .
AISAT 02 Aug 00:29:47 00:33:17 22° 267° (W) 00:36:43 437.250
BEESAT 2 02 Aug 00:37:26 00:41:32 83° 304° (NW) 00:45:42 435.950
AIST 2 02 Aug 00:37:53 00:41:18 24° 114° (ESE) 00:44:47 435.215
CUBEBUG 1 02 Aug 00:41:17 00:45:07 29° 265° (W) 00:48:54 437.445
POLYITAN 1 02 Aug 00:42:30 00:46:48 86° 285° (WNW) 00:51:06 437.675
BEESAT 02 Aug 00:45:11 00:47:26 14° 60° (ENE) 00:49:54 436.000
ISS 02 Aug 00:49:39 00:52:17 22° 360° (N) 00:54:55 145.825
AIST 1 02 Aug 00:49:50 00:53:03 21° 272° (W) 00:56:09
UNISAT 6 02 Aug 00:55:43 00:59:48 29° 292° (WNW) 01:03:49 437.425
POPSAT HIP 1 02 Aug 00:59:21 01:03:34 58° 287° (WNW) 01:07:46 437.405
BUGSAT 1 02 Aug 00:59:37 01:03:43 89° 125° (SE) 01:07:49 437.445
SWISSCUBE 02 Aug 01:04:18 01:07:53 22° 64° (ENE) 01:11:36 437.505
QB50P2 02 Aug 01:07:18 01:11:25 46° 288° (WNW) 01:15:30 145.880/145.840
PHONESAT 2.4 02 Aug 01:07:59 01:10:42 21° 202° (SSW) 01:13:24 2401.200-2431.200
SPROUT 02 Aug 01:14:04 01:18:07 41° 262° (W) 01:22:11 437.525
BEESAT 3 02 Aug 01:17:00 01:20:37 29° 315° (NW) 01:24:15 437.485
Oscar 19 02 Aug 01:21:22 01:22:13 11° 85° (E) 01:23:26 437.125/150
Cosmos 2491 02 Aug 01:22:15 01:30:09 39° 273° (W) 01:37:56 435.465 / 435.565
TISAT 1 02 Aug 01:22:48 01:26:53 51° 260° (W) 01:30:58 437.305
ITUPSAT 1 02 Aug 01:24:59 01:29:09 30° 67° (ENE) 01:33:22 437.325
DUCHIFAT 1 02 Aug 01:31:22 01:35:02 28° 292° (WNW) 01:38:39 145.980
QB50P1 02 Aug 01:35:20 01:38:53 25° 292° (WNW) 01:42:20 145.935-145.965
NANOSAT C BR1 02 Aug 01:36:16 01:39:47 25° 293° (WNW) 01:43:14 145.865
TIGRISAT 02 Aug 01:40:18 01:42:30 13° 299° (WNW) 01:44:29 435.000
ANTELSAT 02 Aug 01:42:43 01:44:36 12° 300° (WNW) 01:46:15 437.575/2403.000
YUBILEINY 02 Aug 01:44:00 01:52:40 68° 282° (WNW) 02:01:25 435.215
O/OREOS (USA 219) 02 Aug 02:04:22 02:08:47 63° 110° (ESE) 02:13:16 437.305
AIST 2 02 Aug 02:15:40 02:19:41 40° 312° (NW) 02:23:44 435.215
BEESAT 2 02 Aug 02:17:58 02:20:16 14° 325° (NW) 02:22:29 435.950
BEESAT 02 Aug 02:19:53 02:24:41 82° 257° (WSW) 02:29:32 436.000
Gurwin Techsat 1B 02 Aug 02:25:15 02:27:45 14° 86° (E) 02:30:32 435.225
ISS 02 Aug 02:26:17 02:29:20 35° 19° (NNE) 02:32:24 145.825
RS-15 02 Aug 02:31:33 02:40:44 27° 355° (N) 02:50:14 29.354- 29.394
STARS 02 Aug 02:32:12 02:34:43 16° 63° (ENE) 02:37:22 437.465
JAS-2 02 Aug 02:36:54 02:38:45 11° 78° (ENE) 02:41:15 435.910
SWISSCUBE 02 Aug 02:40:50 02:45:28 47° 261° (W) 02:50:07 437.505
ITAMSAT 1 02 Aug 02:42:11 02:45:24 17° 89° (E) 02:48:48 435.822/435.867
Cosmos 2504 02 Aug 02:54:21 03:01:05 47° 89° (E) 03:08:23 435.465 / 435.565
Oscar 19 02 Aug 02:57:17 03:02:29 84° 101° (ESE) 03:07:42 437.125/150
KKS-1 02 Aug 02:59:09 03:03:21 44° 71° (ENE) 03:07:36 437.445
ITUPSAT 1 02 Aug 03:02:38 03:06:59 33° 264° (W) 03:11:19 437.325
O/OREOS (USA 219) 02 Aug 03:45:44 03:48:43 17° 311° (NW) 03:51:36 437.305
YUBILEINY 02 Aug 03:46:41 03:51:40 15° 308° (NW) 03:56:10 435.215
MOZHAYETS 4 02 Aug 03:56:31 04:00:10 24° 66° (ENE) 04:03:55
HORYU 2 02 Aug 03:57:29 03:58:29 11° 86° (E) 03:59:46 437.375
ISS 02 Aug 04:02:42 04:05:50 43° 218° (SW) 04:08:56 145.825
Gurwin Techsat 1B 02 Aug 04:03:09 04:08:30 81° 284° (WNW) 04:13:47 435.225
STARS 02 Aug 04:06:26 04:10:43 59° 259° (WSW) 04:15:05 437.465
